Flag for Canada Weather past 2 weeks in Whitehorse, Yukon, Canada

Now
75 °F

Broken clouds.


Feels Like: 77 °F
Forecast: 56 / 63 °F
Wind: 7 mph from West

Location: Withehorse

Current Time: Jul 7, 2015 at 10:12:47 PM

Latest Report: Jul 7, 2015 at 9:00 PM


Visibility: 40 mi

Pressure: 29.80 "Hg (27.69 "Hg at 640m altitude)

Humidity: 36%

Dew point: 46 °F

Location of WhitehorseLocation

Historic Weather in Whitehorse — Graph

°F

Whitehorse temperature yesterday

Maximum temperature yesterday: 82 °F (at 6:00 PM)
Minimum temperature yesterday: 59 °F (at 4:00 AM)
Average temperature yesterday: 72 °F

Past Weeks' High & Low Weather Summary

 TemperatureHumidityPressure
High82 °F (Jul 6, 6:00 PM)100% (Jul 3, 5:00 AM)30.33 "Hg (Jul 3, 5:00 AM)
Low43 °F (Jun 30, 5:00 AM)24% (Jun 24, 7:00 PM)29.78 "Hg (Jun 25, 8:00 PM)
Average61 °F56%30.04 "Hg
* Reported Jun 22 9:00 PM — Jul 7 9:00 PM, Whitehorse, Weather by CustomWeather, © 2015

Note: Actual official high and low records may vary slightly from our data, if they occured in-between our weather recording intervals... More about our weather records

Advertising

Whitehorse weather history for previous 24 hours

 ConditionsComfort  
Time TempWeatherWind HumidityBarometerVisibility
9:00 PM
Tue, Jul 7
75 °FBroken clouds.7 mph36%29.80 "Hg40 mi
8:00 PM77 °FBroken clouds.12 mph32%29.81 "Hg40 mi
7:00 PM77 °FBroken clouds.9 mph32%29.82 "Hg40 mi
6:00 PM79 °FBroken clouds.14 mph32%29.84 "Hg40 mi
5:00 PM77 °FPleasantly warm.8 mph32%29.85 "Hg40 mi
4:00 PM77 °FPartly sunny.12 mph34%29.86 "Hg40 mi
3:00 PM75 °FCloudy.13 mph34%29.87 "Hg40 mi
2:00 PM75 °FCloudy.16 mph34%29.87 "Hg40 mi
1:00 PM75 °FMostly cloudy.14 mph34%29.88 "Hg40 mi
12:00 PM73 °FCloudy.5 mph41%29.89 "Hg40 mi
11:00 AM70 °FMore clouds than sun.No wind50%29.92 "Hg40 mi
10:00 AM68 °FBroken clouds.5 mph49%29.93 "Hg40 mi
9:07 AM68 °FBroken clouds.8 mph49%29.94 "Hg40 mi
8:00 AM63 °FPartly sunny.No wind59%29.96 "Hg40 mi
7:00 AM63 °FPartly sunny.2 mph56%29.98 "Hg40 mi
6:00 AM61 °FPartly sunny.No wind63%29.99 "Hg40 mi
5:00 AM61 °FPartly cloudy.6 mph59%30.01 "Hg30 mi
4:00 AM63 °FPassing clouds.5 mph56%30.01 "Hg30 mi
3:00 AM66 °FPassing clouds.8 mph49%30.01 "Hg20 mi
2:00 AM68 °FPassing clouds.7 mph46%30.01 "Hg20 mi
1:00 AM72 °FPassing clouds.5 mph41%30.01 "Hg20 mi
12:00 AM72 °FPartly sunny.No wind44%30.01 "Hg30 mi
11:00 PM
Mon, Jul 6
75 °FBroken clouds.8 mph39%30.01 "Hg40 mi
10:00 PM81 °FPartly sunny.5 mph32%30.01 "Hg40 mi
Weather by CustomWeather, © 2015

See weather overviewHow to use our weather pages